Simultaneous Nadir Overpasses (SNOs) Predictions

Prediction of SNOs between NOAA-19 and METOP-C Satellite Orbit:

Table of predicted SNOs for the next 14.0 days since TLE Epoch: 6/14/2025
Index Date (NOAA-19) Time (NOAA-19) Lat,Lon (NOAA-19) SZA (NOAA-19 ) Date (METOP-C) Time (METOP-C) Lat,Lon (METOP-C) SZA (METOP-C ) Distance(km) Time Diff (sec)
1 06/24/2025 14:50:07 -80.59,-146.91 115.52 06/24/2025 14:51:10 -80.58,-146.82 115.46 1.87 63
2 06/24/2025 15:41:00 80.57, 20.68 64.53 06/24/2025 15:41:51 80.57, 20.57 64.55 2.08 51
3 06/24/2025 16:32:01 -80.54,-171.56 115.39 06/24/2025 16:32:30 -80.54,-171.63 115.39 1.15 29
4 06/24/2025 17:22:55 80.54, -4.32 64.61 06/24/2025 17:23:11 80.54, -4.24 64.63 1.47 16
5 06/24/2025 18:13:56 -80.51, 163.44 115.32 06/24/2025 18:13:50 -80.50, 163.56 115.31 2.47 6
6 06/24/2025 19:04:49 80.50, -28.97 64.73 06/24/2025 19:04:31 80.50, -29.05 64.71 1.57 18
7 06/24/2025 19:55:50 -80.47, 138.77 115.19 06/24/2025 19:55:10 -80.47, 138.74 115.23 0.54 40
8 06/24/2025 20:46:44 80.47, -53.97 64.81 06/24/2025 20:45:51 80.46, -53.87 64.79 1.99 53



Historial Predications of SNOs between NOAA-19 and METOP-C
